BAW212 EGLL-EPKK

Flight info

Callsign BAW212
Flight time 1h 56m
Altitude 35000
Route BPK Q295 MATCH DCT REDFA DCT TACHA DCT NIGUG DCT PODER DCT NOMKA DCT OMELO DCT OMIFU DCT SOPAV DCT PADKA
Aircraft A320/M-SDE3FGHIRWY/LB1

Departure

Time 2026-05-04 14:51
Airport London Heathrow Airport (EGLL)

Arrival

Time 2026-05-04 16:48
Airport Kraków John Paul II International Airport (EPKK)
Time Latitude Longitude Altitude Speed Heading
2026-05-04 13:59 51.47455 -0.46036 87 ft 0 kts 64°
2026-05-04 14:36 51.47451 -0.46051 89 ft 4 kts 64°
2026-05-04 14:36 51.47441 -0.46082 89 ft 4 kts 60°
2026-05-04 14:37 51.47425 -0.46113 88 ft 4 kts 18°
2026-05-04 14:37 51.47404 -0.46109 87 ft 4 kts 326°
2026-05-04 14:37 51.47393 -0.46097 87 ft 0 kts 326°
2026-05-04 14:40 51.47394 -0.46098 87 ft 1 kts 325°
2026-05-04 14:41 51.47399 -0.46104 90 ft 0 kts 326°
2026-05-04 14:41 51.47400 -0.46105 89 ft 0 kts 326°
2026-05-04 14:41 51.47406 -0.46111 88 ft 1 kts 326°
2026-05-04 14:42 51.47447 -0.46157 88 ft 15 kts 325°
2026-05-04 14:42 51.47517 -0.46088 87 ft 16 kts 81°
2026-05-04 14:42 51.47517 -0.45903 87 ft 18 kts 91°
2026-05-04 14:43 51.47513 -0.45766 88 ft 19 kts 97°
2026-05-04 14:43 51.47507 -0.45548 90 ft 20 kts 90°
2026-05-04 14:43 51.47509 -0.45229 89 ft 23 kts 89°
2026-05-04 14:43 51.47510 -0.45055 91 ft 24 kts 90°
2026-05-04 14:44 51.47510 -0.44782 89 ft 25 kts 90°
2026-05-04 14:44 51.47502 -0.44495 87 ft 26 kts 90°
2026-05-04 14:44 51.47505 -0.44193 88 ft 28 kts 89°
2026-05-04 14:44 51.47506 -0.43878 90 ft 28 kts 90°
2026-05-04 14:45 51.47455 -0.43728 89 ft 10 kts 97°
2026-05-04 14:45 51.47470 -0.43610 90 ft 11 kts 48°
2026-05-04 14:45 51.47551 -0.43596 87 ft 13 kts
2026-05-04 14:45 51.47630 -0.43515 89 ft 15 kts 47°
2026-05-04 14:46 51.47711 -0.43423 91 ft 12 kts
2026-05-04 14:46 51.47755 -0.43454 91 ft 8 kts 323°
2026-05-04 14:46 51.47765 -0.43531 87 ft 0 kts 270°
2026-05-04 14:50 51.47765 -0.43534 87 ft 1 kts 271°
2026-05-04 14:50 51.47765 -0.43546 87 ft 0 kts 272°
2026-05-04 14:50 51.47766 -0.43555 87 ft 2 kts 273°
2026-05-04 14:51 51.47766 -0.43830 84 ft 66 kts 270°
2026-05-04 14:51 51.47763 -0.44988 90 ft 137 kts 269°
2026-05-04 14:51 51.47764 -0.46809 228 ft 180 kts 271°
2026-05-04 14:51 51.47750 -0.48854 1110 ft 183 kts 271°
2026-05-04 14:52 51.47755 -0.50933 1996 ft 190 kts 272°
2026-05-04 14:52 51.47764 -0.53157 2394 ft 211 kts 271°
2026-05-04 14:52 51.48007 -0.55573 2735 ft 231 kts 294°
2026-05-04 14:52 51.48783 -0.57975 3097 ft 253 kts 299°
2026-05-04 14:53 51.49624 -0.60523 3819 ft 262 kts 298°
2026-05-04 14:53 51.50507 -0.63103 4675 ft 266 kts 306°
2026-05-04 14:53 51.51953 -0.64926 5435 ft 271 kts 340°
2026-05-04 14:53 51.53840 -0.65336 5883 ft 277 kts
2026-05-04 14:54 51.55702 -0.64681 6004 ft 277 kts 28°
2026-05-04 14:54 51.57214 -0.62784 6010 ft 277 kts 49°
2026-05-04 14:54 51.58348 -0.60285 6013 ft 277 kts 56°
2026-05-04 14:54 51.59477 -0.57767 6008 ft 278 kts 53°
2026-05-04 14:55 51.60644 -0.55279 6006 ft 279 kts 53°
2026-05-04 14:55 51.61823 -0.52803 6012 ft 279 kts 53°
2026-05-04 14:55 51.62830 -0.50144 6014 ft 278 kts 63°
2026-05-04 14:55 51.63689 -0.47399 6017 ft 278 kts 64°
2026-05-04 14:56 51.64566 -0.44577 6005 ft 279 kts 64°
2026-05-04 14:56 51.65423 -0.41816 6008 ft 279 kts 64°
2026-05-04 14:56 51.66288 -0.39021 6066 ft 279 kts 64°
2026-05-04 14:56 51.67151 -0.36225 6063 ft 279 kts 64°
2026-05-04 14:57 51.68011 -0.33422 6067 ft 279 kts 64°
2026-05-04 14:57 51.68873 -0.30616 6065 ft 279 kts 64°
2026-05-04 14:57 51.69735 -0.27804 6071 ft 279 kts 64°
2026-05-04 14:57 51.70594 -0.25003 6061 ft 279 kts 64°
2026-05-04 14:58 51.71451 -0.22207 6358 ft 276 kts 64°
2026-05-04 14:58 51.72313 -0.19384 7032 ft 284 kts 64°
2026-05-04 14:58 51.73189 -0.16507 7823 ft 288 kts 64°
2026-05-04 14:58 51.74081 -0.13583 8588 ft 292 kts 64°
2026-05-04 14:59 51.74891 -0.10555 9343 ft 296 kts 74°
2026-05-04 14:59 51.75272 -0.07279 10080 ft 299 kts 83°
2026-05-04 14:59 51.75852 -0.00234 10656 ft 339 kts 83°
2026-05-04 15:00 51.76172 0.03660 10761 ft 361 kts 83°
2026-05-04 15:00 51.76511 0.07789 10883 ft 381 kts 83°
2026-05-04 15:00 51.76867 0.12127 11016 ft 398 kts 83°
2026-05-04 15:01 51.77609 0.21173 11896 ft 412 kts 83°
2026-05-04 15:01 51.78039 0.25663 12451 ft 415 kts 78°
2026-05-04 15:01 51.78774 0.30297 13023 ft 418 kts 75°
2026-05-04 15:01 51.79510 0.34854 13577 ft 422 kts 76°
2026-05-04 15:02 51.80245 0.39458 14096 ft 425 kts 76°
2026-05-04 15:02 51.80979 0.44097 14597 ft 428 kts 76°
2026-05-04 15:02 51.81714 0.48767 15082 ft 430 kts 76°
2026-05-04 15:02 51.82454 0.53471 15572 ft 433 kts 76°
2026-05-04 15:03 51.83197 0.58188 16056 ft 435 kts 76°
2026-05-04 15:03 51.83945 0.62945 16550 ft 437 kts 77°
2026-05-04 15:03 51.84696 0.67732 17045 ft 440 kts 77°
2026-05-04 15:03 51.85446 0.72543 17527 ft 442 kts 77°
2026-05-04 15:04 51.86200 0.77376 18009 ft 444 kts 77°
2026-05-04 15:04 51.86955 0.82229 18467 ft 447 kts 77°
2026-05-04 15:04 51.87712 0.87125 18875 ft 449 kts 77°
2026-05-04 15:04 51.88467 0.92040 19281 ft 452 kts 77°
2026-05-04 15:05 51.89226 0.96997 19675 ft 455 kts 77°
2026-05-04 15:05 51.89990 1.01980 20064 ft 458 kts 77°
2026-05-04 15:05 51.90759 1.07000 20447 ft 461 kts 77°
2026-05-04 15:05 51.91532 1.12056 20810 ft 464 kts 77°
2026-05-04 15:06 51.92309 1.17149 21166 ft 467 kts 77°
2026-05-04 15:06 51.93087 1.22262 21480 ft 469 kts 77°
2026-05-04 15:06 51.93868 1.27396 21920 ft 469 kts 77°
2026-05-04 15:07 51.95412 1.37655 22803 ft 468 kts 77°
2026-05-04 15:07 51.96179 1.42797 23249 ft 469 kts 77°
2026-05-04 15:07 51.96941 1.47934 23677 ft 469 kts 77°
2026-05-04 15:07 51.97699 1.53072 24079 ft 468 kts 77°
2026-05-04 15:08 51.98455 1.58206 24498 ft 467 kts 77°
2026-05-04 15:08 51.99207 1.63330 24927 ft 467 kts 77°
2026-05-04 15:08 51.99958 1.68446 25380 ft 466 kts 77°
2026-05-04 15:08 52.00710 1.73546 25845 ft 464 kts 77°
2026-05-04 15:09 52.01416 1.78341 26271 ft 463 kts 78°
2026-05-04 15:09 52.02150 1.83339 26719 ft 462 kts 78°
2026-05-04 15:09 52.02889 1.88418 27184 ft 461 kts 78°
2026-05-04 15:10 52.04347 1.98538 28125 ft 459 kts 79°
2026-05-04 15:10 52.05069 2.03580 28601 ft 458 kts 79°
2026-05-04 15:10 52.06506 2.13638 29538 ft 456 kts 79°
2026-05-04 15:11 52.07222 2.18654 30000 ft 455 kts 79°
2026-05-04 15:11 52.07937 2.23662 30407 ft 455 kts 79°
2026-05-04 15:11 52.08646 2.28671 30784 ft 454 kts 80°
2026-05-04 15:11 52.09348 2.33675 31170 ft 454 kts 80°
2026-05-04 15:12 52.10037 2.38620 31534 ft 454 kts 80°
2026-05-04 15:12 52.10734 2.43634 31910 ft 454 kts 80°
2026-05-04 15:12 52.11432 2.48647 32298 ft 454 kts 79°
2026-05-04 15:12 52.12221 2.53625 32670 ft 455 kts 77°
2026-05-04 15:13 52.13130 2.58562 33048 ft 456 kts 75°
2026-05-04 15:13 52.14111 2.63472 33428 ft 456 kts 74°
2026-05-04 15:13 52.15115 2.68371 33792 ft 456 kts 74°
2026-05-04 15:13 52.16109 2.73277 34121 ft 456 kts 74°
2026-05-04 15:14 52.17081 2.78201 34412 ft 456 kts 75°
2026-05-04 15:14 52.18024 2.83128 34708 ft 456 kts 75°
2026-05-04 15:14 52.18949 2.88069 34946 ft 456 kts 75°
2026-05-04 15:15 52.20777 2.97964 35008 ft 456 kts 75°
2026-05-04 15:15 52.22615 3.07892 35007 ft 462 kts 76°
2026-05-04 15:16 52.24486 3.18093 35016 ft 476 kts 78°
2026-05-04 15:16 52.25065 3.23426 35014 ft 478 kts 88°
2026-05-04 15:16 52.24656 3.34173 35017 ft 475 kts 103°
2026-05-04 15:17 52.24137 3.39496 35017 ft 475 kts 103°
2026-05-04 15:17 52.22577 3.55483 35011 ft 476 kts 103°
2026-05-04 15:18 52.21537 3.66152 35005 ft 476 kts 103°
2026-05-04 15:19 52.19951 3.82146 35003 ft 477 kts 103°
2026-05-04 15:19 52.18323 3.98221 34994 ft 482 kts 103°
2026-05-04 15:20 52.17219 4.09017 34989 ft 482 kts 104°
2026-05-04 15:20 52.16110 4.19805 34984 ft 482 kts 104°
2026-05-04 15:21 52.14997 4.30574 34982 ft 482 kts 104°
2026-05-04 15:22 52.13302 4.46723 34971 ft 482 kts 104°
2026-05-04 15:22 52.11581 4.62850 34976 ft 483 kts 104°
2026-05-04 15:23 52.10414 4.73610 34976 ft 483 kts 104°
2026-05-04 15:23 52.09245 4.84275 34977 ft 483 kts 104°
2026-05-04 15:24 52.06880 5.05784 34977 ft 483 kts 105°
2026-05-04 15:25 52.05682 5.16528 34983 ft 484 kts 105°
2026-05-04 15:26 52.03860 5.32675 34979 ft 484 kts 104°
2026-05-04 15:26 52.02151 5.48859 34977 ft 485 kts 104°
2026-05-04 15:27 52.00634 5.63219 34970 ft 485 kts 104°
2026-05-04 15:28 51.98863 5.79399 34975 ft 485 kts 105°
2026-05-04 15:29 51.97070 5.95571 34971 ft 486 kts 105°
2026-05-04 15:30 51.92809 6.33306 34972 ft 487 kts 105°
2026-05-04 15:31 51.90962 6.49405 34975 ft 487 kts 105°
2026-05-04 15:32 51.87802 6.76341 34976 ft 487 kts 105°
2026-05-04 15:34 51.84585 7.03267 34983 ft 488 kts 105°
2026-05-04 15:34 51.82608 7.19428 34982 ft 488 kts 105°
2026-05-04 15:35 51.80624 7.35571 34977 ft 488 kts 105°
2026-05-04 15:36 51.78614 7.51717 34972 ft 489 kts 105°
2026-05-04 15:36 51.77256 7.62468 34972 ft 489 kts 105°
2026-05-04 15:37 51.75897 7.73226 34975 ft 489 kts 105°
2026-05-04 15:37 51.74523 7.83986 34973 ft 489 kts 106°
2026-05-04 15:38 51.73131 7.94733 34971 ft 489 kts 106°
2026-05-04 15:38 51.71740 8.05484 34965 ft 489 kts 106°
2026-05-04 15:39 51.70347 8.16150 34970 ft 490 kts 106°
2026-05-04 15:40 51.68220 8.32246 34975 ft 490 kts 106°
2026-05-04 15:40 51.66787 8.42977 34969 ft 490 kts 106°
2026-05-04 15:41 51.65345 8.53712 34969 ft 490 kts 106°
2026-05-04 15:41 51.63898 8.64429 34976 ft 490 kts 106°
2026-05-04 15:42 51.62437 8.75155 34972 ft 490 kts 106°
2026-05-04 15:42 51.60968 8.85866 34970 ft 490 kts 106°
2026-05-04 15:43 51.59489 8.96566 34973 ft 490 kts 107°
2026-05-04 15:43 51.58002 9.07249 34962 ft 490 kts 106°
2026-05-04 15:44 51.56508 9.17932 34973 ft 490 kts 107°
2026-05-04 15:44 51.54992 9.28624 34970 ft 490 kts 107°
2026-05-04 15:45 51.53470 9.39306 34973 ft 491 kts 107°
2026-05-04 15:45 51.51944 9.49985 34971 ft 491 kts 107°
2026-05-04 15:46 51.50400 9.60681 34972 ft 491 kts 107°
2026-05-04 15:46 51.48844 9.71369 34967 ft 492 kts 107°
2026-05-04 15:47 51.47282 9.82046 34967 ft 492 kts 107°
2026-05-04 15:47 51.45711 9.92733 34966 ft 492 kts 107°
2026-05-04 15:48 51.44133 10.03403 34967 ft 492 kts 107°
2026-05-04 15:48 51.41740 10.19353 34970 ft 493 kts 107°
2026-05-04 15:49 51.40135 10.30027 34973 ft 493 kts 107°
2026-05-04 15:49 51.38521 10.40686 34974 ft 493 kts 107°
2026-05-04 15:50 51.36891 10.51348 34976 ft 493 kts 107°
2026-05-04 15:50 51.35245 10.61990 34975 ft 493 kts 107°
2026-05-04 15:51 51.33596 10.72637 34976 ft 493 kts 107°
2026-05-04 15:51 51.31937 10.83271 34976 ft 493 kts 107°
2026-05-04 15:52 51.30261 10.93921 34976 ft 493 kts 107°
2026-05-04 15:52 51.28584 11.04560 34976 ft 493 kts 107°
2026-05-04 15:53 51.26900 11.15186 34972 ft 493 kts 107°
2026-05-04 15:53 51.25204 11.25796 34974 ft 493 kts 107°
2026-05-04 15:54 51.23493 11.36400 34971 ft 493 kts 107°
2026-05-04 15:54 51.21773 11.47001 34968 ft 494 kts 107°
2026-05-04 15:55 51.20045 11.57605 34969 ft 494 kts 107°
2026-05-04 15:55 51.18309 11.68208 34971 ft 494 kts 107°
2026-05-04 15:56 51.16560 11.78794 34970 ft 494 kts 107°
2026-05-04 15:56 51.14802 11.89383 34966 ft 494 kts 107°
2026-05-04 15:57 51.13031 11.99942 34968 ft 493 kts 108°
2026-05-04 15:57 51.11252 12.10493 34969 ft 493 kts 107°
2026-05-04 15:58 51.09469 12.21035 34969 ft 493 kts 108°
2026-05-04 15:58 51.07694 12.31478 34972 ft 493 kts 107°
2026-05-04 15:59 51.05902 12.41994 34970 ft 492 kts 107°
2026-05-04 15:59 51.04099 12.52472 34970 ft 491 kts 108°
2026-05-04 16:00 51.02279 12.62942 34973 ft 491 kts 108°
2026-05-04 16:00 51.00442 12.73396 34976 ft 491 kts 108°
2026-05-04 16:01 50.98609 12.83826 34978 ft 490 kts 108°
2026-05-04 16:01 50.96783 12.94228 34973 ft 489 kts 108°
2026-05-04 16:02 50.94945 13.04611 34965 ft 488 kts 108°
2026-05-04 16:03 50.92168 13.20111 34970 ft 487 kts 108°
2026-05-04 16:03 50.90306 13.30451 34975 ft 487 kts 108°
2026-05-04 16:04 50.88443 13.40772 34970 ft 488 kts 108°
2026-05-04 16:04 50.85633 13.56193 34970 ft 489 kts 109°
2026-05-04 16:05 50.83730 13.66523 34970 ft 489 kts 108°
2026-05-04 16:06 50.80869 13.82027 34969 ft 490 kts 108°
2026-05-04 16:07 50.77015 14.02664 34968 ft 490 kts 108°
2026-05-04 16:08 50.73112 14.23315 34970 ft 490 kts 108°
2026-05-04 16:09 50.68211 14.48954 34966 ft 489 kts 109°
2026-05-04 16:10 50.64256 14.69409 34966 ft 487 kts 109°
2026-05-04 16:11 50.60260 14.89802 34963 ft 487 kts 109°
2026-05-04 16:12 50.54227 15.20332 34966 ft 487 kts 109°
2026-05-04 16:13 50.50147 15.40622 34969 ft 487 kts 109°
2026-05-04 16:14 50.46391 15.59190 34971 ft 487 kts 109°
2026-05-04 16:16 50.41199 15.84461 34971 ft 486 kts 109°
2026-05-04 16:17 50.35970 16.09612 34974 ft 485 kts 109°
2026-05-04 16:18 50.31786 16.29599 34975 ft 484 kts 109°
2026-05-04 16:19 50.26479 16.54588 34978 ft 484 kts 109°
2026-05-04 16:20 50.21130 16.79493 34986 ft 483 kts 109°
2026-05-04 16:21 50.17905 16.94307 34982 ft 470 kts 109°
2026-05-04 16:22 50.15837 17.03762 34984 ft 457 kts 109°
2026-05-04 16:22 50.12703 17.18064 34390 ft 474 kts 109°
2026-05-04 16:23 50.09469 17.32684 33622 ft 477 kts 109°
2026-05-04 16:24 50.05121 17.52169 32547 ft 479 kts 109°
2026-05-04 16:25 50.02927 17.61959 32023 ft 480 kts 109°
2026-05-04 16:26 49.98502 17.81558 31005 ft 481 kts 109°
2026-05-04 16:26 49.95137 17.96281 30262 ft 483 kts 109°
2026-05-04 16:27 49.93370 18.06300 29725 ft 482 kts 96°
2026-05-04 16:28 49.93325 18.21888 28881 ft 482 kts 88°
2026-05-04 16:28 49.93278 18.37532 28069 ft 484 kts 92°
2026-05-04 16:29 49.92454 18.58432 25975 ft 489 kts 93°
2026-05-04 16:30 49.91936 18.74327 23584 ft 476 kts 92°
2026-05-04 16:31 49.91587 18.84168 23296 ft 439 kts 94°
2026-05-04 16:31 49.90800 18.97619 22893 ft 398 kts 95°
2026-05-04 16:32 49.90060 19.09899 22318 ft 366 kts 95°
2026-05-04 16:33 49.89614 19.17668 20955 ft 358 kts 95°
2026-05-04 16:33 49.89229 19.25238 19964 ft 349 kts 89°
2026-05-04 16:34 49.90066 19.31783 19112 ft 347 kts 67°
2026-05-04 16:34 49.91019 19.35176 18704 ft 346 kts 66°
2026-05-04 16:35 49.93875 19.45364 17275 ft 338 kts 66°
2026-05-04 16:35 49.95751 19.55783 15813 ft 332 kts 78°
2026-05-04 16:36 49.96218 19.59223 15370 ft 329 kts 78°
2026-05-04 16:36 49.97154 19.66085 14368 ft 320 kts 78°
2026-05-04 16:37 49.98066 19.72798 13459 ft 316 kts 79°
2026-05-04 16:37 49.98517 19.76120 13010 ft 313 kts 79°
2026-05-04 16:37 49.99404 19.82675 12145 ft 308 kts 79°
2026-05-04 16:38 50.00282 19.89153 11300 ft 304 kts 79°
2026-05-04 16:39 50.01515 19.98254 10529 ft 270 kts 79°
2026-05-04 16:39 50.02271 20.03868 10037 ft 264 kts 79°
2026-05-04 16:40 50.03022 20.09421 9500 ft 261 kts 79°
2026-05-04 16:40 50.03760 20.14890 8808 ft 259 kts 79°
2026-05-04 16:41 50.04537 20.20328 8070 ft 257 kts 69°
2026-05-04 16:41 50.08923 20.23313 6939 ft 255 kts 342°
2026-05-04 16:42 50.13010 20.19409 6251 ft 216 kts 283°
2026-05-04 16:43 50.12783 20.14823 5277 ft 217 kts 256°
2026-05-04 16:43 50.12157 20.10309 4606 ft 208 kts 257°
2026-05-04 16:43 50.11859 20.08134 4313 ft 202 kts 257°
2026-05-04 16:44 50.10795 20.00406 3343 ft 170 kts 257°
2026-05-04 16:45 50.10310 19.96872 2883 ft 165 kts 257°
2026-05-04 16:46 50.09627 19.91897 2284 ft 149 kts 256°
2026-05-04 16:46 50.09192 19.88744 1898 ft 148 kts 256°
2026-05-04 16:47 50.08763 19.85633 1530 ft 144 kts 257°
2026-05-04 16:47 50.08350 19.82646 1168 ft 138 kts 259°
2026-05-04 16:48 50.07779 19.78539 801 ft 66 kts 257°
2026-05-04 16:48 50.07722 19.78148 799 ft 19 kts 242°
2026-05-04 16:49 50.07531 19.78084 800 ft 7 kts 182°
2026-05-04 16:49 50.07474 19.78177 800 ft 8 kts 76°
2026-05-04 16:50 50.07522 19.78490 800 ft 30 kts 78°
2026-05-04 16:50 50.07607 19.79108 800 ft 25 kts 78°
2026-05-04 16:51 50.07674 19.79590 800 ft 13 kts 77°
2026-05-04 16:51 50.07680 19.79632 800 ft 1 kts 78°
2026-05-04 16:51 50.07591 19.79719 800 ft 15 kts 168°
2026-05-04 16:52 50.07434 19.79770 800 ft 13 kts 168°
2026-05-04 16:52 50.07376 19.79855 800 ft 13 kts 88°
2026-05-04 16:53 50.07388 19.80093 800 ft 8 kts 157°
2026-05-04 16:53 50.07324 19.80108 800 ft 0 kts 168°